Weather History for Clinton, AR

Change the Weather History Date:

Sunday, November 6, 2011

  Actual Average (KFLP) Record (KFLP)
Temperature  
Mean Temperature 53 °F -  
Max Temperature 64 °F 61 °F 82 °F (1999)
Min Temperature 42 °F 41 °F 26 °F (2010)
Degree Days  
Heating Degree Days 12    
Growing Degree Days 3 (Base 50)    
Moisture  
Dew Point 49 °F    
Average Humidity 80    
Maximum Humidity 100    
Minimum Humidity 64    
Precipitation  
Precipitation 0.00 in - - ()
Sea Level Pressure  
Sea Level Pressure 30.12 in    
Wind  
Wind Speed 1 mph (SSE)    
Max Wind Speed 10 mph    
Max Gust Speed 18 mph    
Visibility 8 miles    
Events      
Averages and records for this station are not official NWS values.
T = Trace of Precipitation, MM = Missing Value Source: NWS Daily Summary

Daily Weather History Graph

Daily Weather History Graph

Search for Another Location

Airport:

Trip Planner

Search our weather history database for the weather conditions in past years. The results will help you decide how hot, cold, wet, or windy it might be!

Date:

Astronomy

Nov. 06, 2011 Rise Set
Actual Time 6:36 AM CST 5:10 PM CST
Civil Twilight 6:09 AM CST 5:36 PM CST
Nautical Twilight 5:39 AM CST 6:07 PM CST
Astronomical Twilight 5:09 AM CST 6:36 PM CST
Moon 2:48 PM CST (11/6) 2:49 AM CST (11/6)
Length of Visible Light 11h 27m
Length of Day
10h 33m
Waxing Gibbous, 86% of the Moon is Illuminated
Nov 6
Waxing Gibbous
Nov 10
Full
Nov 18
Last Quarter
Nov 25
New
Dec 2
First Quarter

Hourly Weather History & Observations

Time (CST) Temp. Dew Point Humidity Pressure Visibility Wind Dir Wind Speed Gust Speed Precip Events Conditions
12:15 AM 46.4 °F 44.6 °F 93% 30.08 in 4.0 mi Calm Calm - N/A   Clear
12:35 AM 44.6 °F 44.6 °F 100% 30.08 in 5.0 mi Calm Calm - N/A   Clear
12:55 AM 44.6 °F 44.6 °F 100% 30.07 in 2.5 mi Calm Calm - N/A   Clear
1:15 AM 44.6 °F 44.6 °F 100% 30.07 in 3.0 mi Calm Calm - N/A   Clear
1:35 AM 44.6 °F 42.8 °F 93% 30.08 in 2.5 mi Calm Calm - N/A   Clear
1:55 AM 42.8 °F 42.8 °F 100% 30.08 in 1.0 mi Calm Calm - N/A   Clear
1:15 AM 42.8 °F 42.8 °F 100% 30.09 in 2.0 mi Calm Calm - N/A   Clear
1:35 AM 42.8 °F 41.0 °F 93% 30.09 in 3.0 mi Calm Calm - N/A   Clear
1:55 AM 42.8 °F 42.8 °F 100% 30.09 in 0.8 mi Calm Calm - N/A   Mist
2:15 AM 42.8 °F 41.0 °F 93% 30.08 in 0.8 mi Calm Calm - N/A   Mostly Cloudy
2:35 AM 42.8 °F 42.8 °F 100% 30.09 in 4.0 mi Calm Calm - N/A   Scattered Clouds
2:55 AM 42.8 °F 42.8 °F 100% 30.08 in 3.0 mi Calm Calm - N/A   Overcast
3:15 AM 44.6 °F 42.8 °F 93% 30.07 in 4.0 mi Calm Calm - N/A   Overcast
3:35 AM 44.6 °F 44.6 °F 100% 30.08 in 5.0 mi Calm Calm - N/A   Overcast
3:55 AM 46.4 °F 44.6 °F 93% 30.09 in 4.0 mi Calm Calm - N/A   Overcast
4:15 AM 48.2 °F 46.4 °F 93% 30.08 in 5.0 mi Calm Calm - N/A   Overcast
4:35 AM 53.6 °F 48.2 °F 82% 30.09 in 10.0 mi Calm Calm - N/A   Overcast
4:55 AM 55.4 °F 50.0 °F 82% 30.10 in 10.0 mi Calm Calm - N/A   Overcast
5:15 AM 55.4 °F 50.0 °F 82% 30.11 in 10.0 mi Calm Calm - N/A   Overcast
5:35 AM 55.4 °F 51.8 °F 88% 30.11 in 10.0 mi Calm Calm - N/A   Overcast
5:55 AM 55.4 °F 51.8 °F 88% 30.11 in 10.0 mi Calm Calm - N/A   Overcast
6:15 AM 55.4 °F 51.8 °F 88% 30.12 in 10.0 mi Calm Calm - N/A   Overcast
6:35 AM 55.4 °F 50.0 °F 82% 30.12 in 10.0 mi Calm Calm - N/A   Overcast
6:55 AM 55.4 °F 50.0 °F 82% 30.13 in 10.0 mi SW 3.5 mph - N/A   Mostly Cloudy
7:15 AM 57.2 °F 50.0 °F 77% 30.14 in 10.0 mi Calm Calm - N/A   Mostly Cloudy
7:35 AM 57.2 °F 50.0 °F 77% 30.14 in 10.0 mi Calm Calm - N/A   Mostly Cloudy
7:55 AM 57.2 °F 48.2 °F 72% 30.15 in 10.0 mi Calm Calm - N/A   Mostly Cloudy
8:15 AM 57.2 °F 48.2 °F 72% 30.15 in 10.0 mi South 3.5 mph - N/A   Scattered Clouds
8:35 AM 57.2 °F 48.2 °F 72% 30.16 in 10.0 mi Calm Calm - N/A   Mostly Cloudy
8:55 AM 57.2 °F 48.2 °F 72% 30.16 in 10.0 mi Calm Calm - N/A   Mostly Cloudy
9:35 AM 57.2 °F 48.2 °F 72% 30.16 in 10.0 mi Calm Calm - N/A   Overcast
9:55 AM 57.2 °F 48.2 °F 72% 30.16 in 10.0 mi Calm Calm - N/A   Overcast
10:15 AM 57.2 °F 48.2 °F 72% 30.17 in 10.0 mi Calm Calm - N/A   Overcast
10:35 AM 59.0 °F 50.0 °F 72% 30.17 in 10.0 mi SSE 4.6 mph - N/A   Overcast
10:55 AM 59.0 °F 50.0 °F 72% 30.16 in 10.0 mi SSE 6.9 mph - N/A   Overcast
11:15 AM 60.8 °F 50.0 °F 68% 30.15 in 10.0 mi SSE 9.2 mph - N/A   Overcast
11:35 AM 60.8 °F 51.8 °F 72% 30.15 in 9.0 mi South 5.8 mph - N/A   Overcast
11:55 AM 60.8 °F 51.8 °F 72% 30.14 in 10.0 mi SSE 10.4 mph - N/A   Overcast
12:15 PM 62.6 °F 51.8 °F 68% 30.13 in 10.0 mi South 8.1 mph - N/A   Overcast
12:35 PM 62.6 °F 51.8 °F 68% 30.12 in 10.0 mi SSE 6.9 mph 16.1 mph N/A   Overcast
12:55 PM 62.6 °F 51.8 °F 68% 30.11 in 10.0 mi SSE 8.1 mph 18.4 mph N/A   Overcast
1:15 PM 62.6 °F 51.8 °F 68% 30.10 in 10.0 mi South 5.8 mph - N/A   Overcast
1:35 PM 62.6 °F 51.8 °F 68% 30.10 in 10.0 mi SE 5.8 mph - N/A   Overcast
1:55 PM 64.4 °F 51.8 °F 64% 30.10 in 10.0 mi SSE 10.4 mph - N/A   Overcast
2:15 PM 62.6 °F 51.8 °F 68% 30.10 in 10.0 mi SSE 9.2 mph - N/A   Overcast
2:35 PM 62.6 °F 51.8 °F 68% 30.10 in 10.0 mi SE 8.1 mph - N/A   Overcast
2:55 PM 62.6 °F 51.8 °F 68% 30.10 in 10.0 mi SSE 5.8 mph - N/A   Overcast
3:35 PM 64.4 °F 51.8 °F 64% 30.11 in 10.0 mi SSE 5.8 mph - N/A   Overcast
3:55 PM 64.4 °F 51.8 °F 64% 30.11 in 10.0 mi ESE 3.5 mph - N/A   Overcast
4:15 PM 62.6 °F 51.8 °F 68% 30.11 in 10.0 mi SE 3.5 mph - N/A   Overcast
4:35 PM 62.6 °F 51.8 °F 68% 30.11 in 10.0 mi Calm Calm - N/A   Overcast
4:55 PM 62.6 °F 51.8 °F 68% 30.11 in 10.0 mi Calm Calm - N/A   Mostly Cloudy
5:15 PM 62.6 °F 51.8 °F 68% 30.11 in 10.0 mi ESE 5.8 mph - N/A   Overcast
5:35 PM 62.6 °F 51.8 °F 68% 30.11 in 10.0 mi Calm Calm - N/A   Overcast
5:55 PM 60.8 °F 51.8 °F 72% 30.13 in 10.0 mi Calm Calm - N/A   Overcast
6:15 PM 60.8 °F 51.8 °F 72% 30.13 in 10.0 mi Calm Calm - N/A   Overcast
6:35 PM 60.8 °F 51.8 °F 72% 30.14 in 10.0 mi Calm Calm - N/A   Overcast
6:55 PM 60.8 °F 51.8 °F 72% 30.15 in 10.0 mi Calm Calm - N/A   Overcast
7:15 PM 60.8 °F 51.8 °F 72% 30.15 in 10.0 mi Calm Calm - N/A   Overcast
7:35 PM 59.0 °F 51.8 °F 77% 30.15 in 10.0 mi Calm Calm - N/A   Mostly Cloudy
7:55 PM 57.2 °F 51.8 °F 82% 30.16 in 10.0 mi Calm Calm - N/A   Overcast
8:15 PM 57.2 °F 51.8 °F 82% 30.16 in 10.0 mi Calm Calm - N/A   Overcast
8:35 PM 55.4 °F 51.8 °F 88% 30.16 in 10.0 mi Calm Calm - N/A   Overcast
8:55 PM 55.4 °F 53.6 °F 94% 30.16 in 10.0 mi Calm Calm - N/A   Overcast
9:15 PM 57.2 °F 53.6 °F 88% 30.17 in 10.0 mi Calm Calm - N/A   Mostly Cloudy
9:35 PM 57.2 °F 53.6 °F 88% 30.17 in 10.0 mi Calm Calm - N/A   Mostly Cloudy
9:55 PM 57.2 °F 53.6 °F 88% 30.17 in 10.0 mi Calm Calm - N/A   Mostly Cloudy
10:35 PM 57.2 °F 53.6 °F 88% 30.16 in 10.0 mi Calm Calm - N/A   Overcast
10:55 PM 57.2 °F 53.6 °F 88% 30.16 in 10.0 mi Calm Calm - N/A   Overcast